TimeCDT,TemperatureF,Dew PointF,Humidity,Sea Level PressureIn,VisibilityMPH,Wind Direction,Wind SpeedMPH,Gust SpeedMPH,PrecipitationIn,Events,Conditions,WindDirDegrees,DateUTC
12:53 AM,36.0,28.9,76,30.03,10.0,NW,3.5,-,N/A,,Overcast,310,2013-10-23 05:53:00
1:53 AM,33.1,28.0,82,30.03,10.0,West,4.6,-,N/A,,Mostly Cloudy,270,2013-10-23 06:53:00
2:53 AM,32.0,27.0,82,30.03,10.0,WSW,4.6,-,N/A,,Mostly Cloudy,250,2013-10-23 07:53:00
3:53 AM,35.1,28.0,76,30.02,10.0,WNW,6.9,-,N/A,,Overcast,300,2013-10-23 08:53:00
4:53 AM,35.1,28.0,76,30.01,10.0,West,6.9,-,N/A,,Overcast,280,2013-10-23 09:53:00
5:53 AM,35.1,28.0,76,30.02,10.0,West,5.8,-,N/A,,Overcast,280,2013-10-23 10:53:00
6:53 AM,34.0,28.0,79,30.03,10.0,West,6.9,-,N/A,,Overcast,280,2013-10-23 11:53:00
7:53 AM,34.0,28.0,79,30.03,10.0,West,6.9,-,N/A,,Overcast,280,2013-10-23 12:53:00
8:53 AM,34.0,28.0,79,30.04,10.0,WNW,5.8,-,N/A,,Overcast,290,2013-10-23 13:53:00
9:53 AM,36.0,28.9,76,30.05,10.0,NW,6.9,-,N/A,,Overcast,310,2013-10-23 14:53:00
10:32 AM,37.4,26.6,65,30.02,10.0,NW,10.4,-,N/A,,Overcast,310,2013-10-23 15:32:00
10:40 AM,37.4,24.8,60,30.02,10.0,NW,12.7,-,N/A,,Overcast,310,2013-10-23 15:40:00
10:53 AM,37.9,24.1,57,30.04,10.0,NNW,12.7,-,N/A,,Overcast,330,2013-10-23 15:53:00
11:53 AM,37.0,24.1,59,30.05,10.0,WNW,11.5,-,N/A,,Overcast,300,2013-10-23 16:53:00
12:53 PM,37.0,21.9,54,30.04,10.0,NW,9.2,-,N/A,,Overcast,320,2013-10-23 17:53:00
1:53 PM,39.0,21.9,50,30.04,10.0,WNW,13.8,-,N/A,,Overcast,290,2013-10-23 18:53:00
2:53 PM,37.9,19.9,48,30.04,10.0,WNW,9.2,-,N/A,,Overcast,290,2013-10-23 19:53:00
3:53 PM,37.0,21.0,52,30.05,10.0,WNW,9.2,18.4,N/A,,Overcast,290,2013-10-23 20:53:00
4:53 PM,36.0,19.9,52,30.07,10.0,NW,9.2,-,N/A,,Overcast,310,2013-10-23 21:53:00
5:53 PM,35.1,19.9,54,30.09,10.0,North,6.9,-,N/A,,Overcast,350,2013-10-23 22:53:00
6:53 PM,34.0,19.0,54,30.10,10.0,NNW,5.8,-,N/A,,Overcast,330,2013-10-23 23:53:00
7:53 PM,34.0,21.0,59,30.11,10.0,North,4.6,-,N/A,,Overcast,350,2013-10-24 00:53:00
8:53 PM,34.0,21.0,59,30.11,10.0,NW,3.5,-,N/A,,Overcast,320,2013-10-24 01:53:00
9:53 PM,35.1,21.0,57,30.11,10.0,NNW,9.2,-,N/A,,Overcast,330,2013-10-24 02:53:00
10:53 PM,34.0,19.9,56,30.12,10.0,NNW,5.8,-,N/A,,Overcast,330,2013-10-24 03:53:00
11:53 PM,34.0,19.9,56,30.12,10.0,NW,4.6,-,N/A,,Overcast,320,2013-10-24 04:53:00